Date String (YYYY-MM-DD hh:mm:ss) UTC,Instrument flags,Ambient pressure (hPa),Sample flow (lpm),Bypass flow (lpm),Sample temperature (°C),Ambient temperature (°C),ASC tube jacket temperature (°C),LED temperature (°C),Box temperature (°C),Sample RH (%),Span deviation,Mass concentration (μg/m³),Mass concentration (μg/m³),Mass concentration (μg/m³)
DateTimeUTC,F1_M11,P_M11,Q1_M11,Q2_M11,T1_M11,T2_M11,T3_M11,T4_M11,T5_M11,U1_M11,ZSPAN_M11,X0_M11,X2_M11,X1_M11
2022-10-14 20:00:00,,0821.9,5.01,0.00,29.9,28.9,00.0,38.6,31.8,08.1,0000.0,0010.25,0003.36,0002.69
2022-10-14 20:01:00,,0822.0,5.00,0.00,29.9,28.9,00.0,38.6,31.8,08.1,0000.0,0009.93,0003.38,0002.69
2022-10-14 20:02:00,,0822.0,4.98,0.00,29.9,27.8,00.0,38.6,31.8,08.0,0000.0,0009.25,0003.36,0002.67
2022-10-14 20:03:00,,0821.9,5.00,0.00,29.9,26.4,00.0,38.6,31.6,08.1,0000.0,0009.27,0003.37,0002.68
2022-10-14 20:04:00,,0821.8,5.00,0.00,29.8,26.3,00.0,38.5,31.5,08.2,0000.0,0008.67,0003.40,0002.69
2022-10-14 20:05:00,,0821.8,5.01,0.00,29.7,26.6,00.0,38.5,31.4,08.2,0000.0,0007.75,0003.37,0002.69
2022-10-14 20:06:00,,0821.8,4.98,0.00,29.7,27.0,00.0,38.5,31.3,08.3,0000.0,0007.78,0003.36,0002.70
2022-10-14 20:07:00,,0821.8,5.00,0.00,29.6,27.3,00.0,38.5,31.4,08.3,0000.0,0008.13,0003.33,0002.69
2022-10-14 20:08:00,,0821.8,4.99,0.00,29.6,27.6,00.0,38.5,31.4,08.4,0000.0,0006.86,0003.24,0002.68
2022-10-14 20:09:00,,0821.8,5.01,0.00,29.6,27.8,00.0,38.4,31.4,08.5,0000.0,0006.41,0003.20,0002.69
2022-10-14 20:10:00,,0821.9,5.00,0.00,29.6,28.1,00.0,38.4,31.4,08.6,0000.0,0006.23,0003.18,0002.69
2022-10-14 20:11:00,,0821.8,5.00,0.00,29.6,28.3,00.0,38.5,31.5,08.7,0000.0,0006.90,0003.16,0002.68
2022-10-14 20:12:00,,0821.8,4.99,0.00,29.7,28.4,00.0,38.5,31.5,08.8,0000.0,0007.36,0003.13,0002.67
2022-10-14 20:13:00,,0821.8,5.00,0.00,29.7,28.5,00.0,38.5,31.6,08.8,0000.0,0007.35,0003.15,0002.68
2022-10-14 20:14:00,,0821.8,5.00,0.00,29.7,28.6,00.0,38.5,31.6,08.5,0000.0,0007.50,0003.15,0002.67
2022-10-14 20:15:00,,0821.8,5.01,0.00,29.8,28.7,00.0,38.5,31.7,08.6,0000.0,0007.62,0003.14,0002.66
2022-10-14 20:16:00,,0821.8,5.00,0.00,29.8,28.8,00.0,38.5,31.7,08.6,0000.0,0009.60,0003.17,0002.66
2022-10-14 20:17:00,,0821.8,5.00,0.00,29.8,28.9,00.0,38.5,31.7,08.2,0000.0,0010.42,0003.16,0002.66
2022-10-14 20:18:00,,0821.8,5.00,0.00,29.9,28.9,00.0,38.6,31.8,08.1,0000.0,0010.10,0003.17,0002.66
2022-10-14 20:19:00,,0821.7,5.00,0.00,29.9,29.0,00.0,38.6,31.9,08.3,0000.0,0009.97,0003.18,0002.66
2022-10-14 20:20:00,,0821.6,4.98,0.00,29.9,29.1,00.0,38.6,31.9,08.4,0000.0,0010.29,0003.18,0002.65
2022-10-14 20:21:00,,0821.6,4.99,0.00,30.0,29.1,00.0,38.6,31.9,08.2,0000.0,0010.37,0003.18,0002.62
2022-10-14 20:22:00,,0821.6,5.01,0.00,30.0,28.3,00.0,38.6,31.9,08.3,0000.0,0010.23,0003.18,0002.61
2022-10-14 20:23:00,,0821.5,5.00,0.00,30.0,27.2,00.0,38.6,31.8,08.3,0000.0,0009.90,0003.18,0002.61
2022-10-14 20:24:00,,0821.6,5.01,0.00,29.9,27.1,00.0,38.6,31.7,08.1,0000.0,0009.92,0003.19,0002.60
2022-10-14 20:25:00,,0821.7,4.99,0.00,29.9,27.3,00.0,38.6,31.6,07.5,0000.0,0009.71,0003.16,0002.57
2022-10-14 20:26:00,,0821.7,5.01,0.00,29.8,27.6,00.0,38.6,31.6,07.4,0000.0,0009.60,0003.14,0002.54
2022-10-14 20:27:00,,0821.7,4.99,0.00,29.8,27.9,00.0,38.6,31.6,07.8,0000.0,0007.74,0003.04,0002.50
2022-10-14 20:28:00,,0821.7,5.02,0.00,29.8,28.2,00.0,38.6,31.7,07.5,0000.0,0006.84,0003.01,0002.48
2022-10-14 20:29:00,,0821.7,5.00,0.00,29.8,28.3,00.0,38.6,31.7,07.5,0000.0,0006.58,0003.00,0002.44
2022-10-14 20:30:00,,0821.7,5.00,0.00,29.8,28.5,00.0,38.6,31.7,07.7,0000.0,0006.51,0002.96,0002.40
2022-10-14 20:31:00,,0821.7,5.00,0.00,29.9,28.7,00.0,38.6,31.7,08.0,0000.0,0006.25,0003.02,0002.38
2022-10-14 20:32:00,,0821.8,5.00,0.00,29.9,28.8,00.0,38.6,31.8,08.2,0000.0,0006.15,0003.05,0002.37
2022-10-14 20:33:00,,0821.7,5.00,0.00,29.9,28.9,00.0,38.6,31.8,08.2,0000.0,0005.97,0003.05,0002.37
2022-10-14 20:34:00,,0821.7,5.00,0.00,30.0,28.6,00.0,38.6,31.8,08.0,0000.0,0005.68,0003.04,0002.37
2022-10-14 20:35:00,,0821.8,5.00,0.00,29.9,27.1,00.0,38.6,31.7,08.0,0000.0,0005.67,0003.01,0002.36
2022-10-14 20:36:00,,0821.8,5.01,0.00,29.9,26.3,00.0,38.5,31.6,07.8,0000.0,0005.99,0003.01,0002.37
2022-10-14 20:37:00,,0821.7,5.00,0.00,29.8,26.5,00.0,38.5,31.5,07.8,0000.0,0005.79,0003.04,0002.38
2022-10-14 20:38:00,,0821.6,5.00,0.00,29.7,26.8,00.0,38.5,31.3,07.8,0000.0,0006.43,0003.11,0002.39
2022-10-14 20:39:00,,0821.6,4.99,0.00,29.7,27.1,00.0,38.5,31.4,07.9,0000.0,0006.55,0003.11,0002.40
2022-10-14 20:40:00,,0821.5,5.01,0.00,29.7,27.5,00.0,38.5,31.4,07.5,0000.0,0006.64,0003.09,0002.40
2022-10-14 20:41:00,,0821.5,4.99,0.00,29.6,27.8,00.0,38.5,31.4,06.9,0000.0,0007.23,0003.09,0002.39
2022-10-14 20:42:00,,0821.4,4.99,0.00,29.6,28.0,00.0,38.5,31.5,07.5,0000.0,0008.35,0003.02,0002.36
2022-10-14 20:43:00,,0821.4,5.00,0.00,29.7,28.2,00.0,38.5,31.5,08.1,0000.0,0008.65,0002.98,0002.37
2022-10-14 20:44:00,,0821.4,5.02,0.00,29.7,28.3,00.0,38.5,31.5,08.2,0000.0,0008.60,0002.96,0002.38
2022-10-14 20:45:00,,0821.4,5.00,0.00,29.7,28.5,00.0,38.5,31.6,08.4,0000.0,0008.54,0002.94,0002.37
2022-10-14 20:46:00,,0821.3,4.99,0.00,29.7,28.6,00.0,38.5,31.6,08.3,0000.0,0008.51,0002.92,0002.37
2022-10-14 20:47:00,,0821.4,4.99,0.00,29.8,28.7,00.0,38.5,31.7,08.2,0000.0,0008.49,0002.95,0002.38
2022-10-14 20:48:00,,0821.3,4.99,0.00,29.8,28.8,00.0,38.5,31.7,08.2,0000.0,0008.50,0003.01,0002.40
2022-10-14 20:49:00,,0821.4,5.02,0.00,29.8,28.9,00.0,38.5,31.8,07.9,0000.0,0008.48,0003.03,0002.41
2022-10-14 20:50:00,,0821.4,5.00,0.00,29.9,29.0,00.0,38.6,31.8,08.0,0000.0,0007.83,0003.06,0002.42
2022-10-14 20:51:00,,0821.4,4.98,0.00,29.9,29.0,00.0,38.6,31.8,08.2,0000.0,0007.80,0003.09,0002.44
2022-10-14 20:52:00,,0821.5,5.00,0.00,29.9,29.1,00.0,38.6,31.9,08.3,0000.0,0007.80,0003.10,0002.49
2022-10-14 20:53:00,,0821.5,5.01,0.00,30.0,29.2,00.0,38.6,31.9,08.1,0000.0,0007.10,0003.14,0002.54
2022-10-14 20:54:00,,0821.6,5.00,0.00,30.0,29.2,00.0,38.7,32.0,08.1,0000.0,0006.24,0003.16,0002.55
2022-10-14 20:55:00,,0821.6,4.99,0.00,30.0,28.5,00.0,38.7,31.9,07.9,0000.0,0006.56,0003.16,0002.55
2022-10-14 20:56:00,,0821.7,5.01,0.00,30.0,27.0,00.0,38.7,31.7,07.8,0000.0,0007.22,0003.18,0002.57
2022-10-14 20:57:00,,0821.7,5.00,0.00,29.9,26.4,00.0,38.6,31.6,07.6,0000.0,0007.44,0003.19,0002.58
2022-10-14 20:58:00,,0821.6,5.01,0.00,29.9,26.6,00.0,38.6,31.5,07.9,0000.0,0007.76,0003.19,0002.57
2022-10-14 20:59:00,,0821.5,4.99,0.00,29.8,26.9,00.0,38.5,31.4,08.1,0000.0,0007.79,0003.15,0002.55
